Starlink 30576

operational
NORAD ID: 58065 Int'l Des: 2023-158 Owner: SPXS Country: US Constellation: starlink
LEOCIRCULAR

Über Starlink 30576

Beschreibung wird geladen...

Live-Position

3D-Globus wird geladen...

Nächste Überflüge

Höhenverlauf

Altitude vs Time

uPlot chart will show altitude changes over time

Zweizeiliger Elementsatz

1 58065U 23158Q 25260.01401343 -.00000142 00000-0 45386-5 0 9993
2 58065 43.0025 254.2439 0001230 277.1178 82.9525 15.02536291107405
Epoch: 17. Sept. 2025 • Age: 20 hours

Aktueller Status

Höhe 562.8 km
Geschwindigkeit 7.59 km/s
Subsatellitenpunkt 41.77°N, 61.45°E
Startdatum 13. Okt. 2023
Alter 1.9 years
Typ internet

Technische Details

Klassifizierung Payload
Masse 730.00 kg
Trockenmasse 700.00 kg
Gesamtmasse 730.00 kg
Länge 0.30 m
Durchmesser 4.10 m
Spannweite 29.00 m
Form Box + pan
Hersteller SPXS
Bus-Typ Starlink V2M
Phasenstatus In Orbit
Besitzer/Staat SPXS/US

Große Konstellationen

Loading constellations...